Regional Weather Roundup
Issued by NWS

Home | Current Version | Previous Version | Text Only | Print | Product List | Glossary Off
Versions: 1 2 3 4 5 6 7 8 9 10 11 12 13 14 15 16 17 18 19 20 21 22 23 24 25 26 27 28 29 30 31 32 33 34 35 36 37 38 39 40 41 42 43 44 45 46 47 48 49 50

000
ASUS43 KDTX 272010
RWRMI
MICHIGAN HOURLY REGIONAL WEATHER ROUNDUP
NATIONAL WEATHER SERVICE DETROIT/PONTIAC MI
400 PM EDT THU AUG 27 2015

NOTE: "FAIR" INDICATES FEW OR NO CLOUDS BELOW 12,000 FEET WITH NO
SIGNIFICANT WEATHER AND/OR OBSTRUCTION TO VISIBILITY.

MIZ047>049-052>055-059>063-066>070-074>076-081>083-272100-
SOUTHEAST LOWER MICHIGAN

CITY           SKY/WX    TMP DP  RH WIND       PRES   REMARKS
ADRIAN         CLOUDY    68  52  56 CALM      30.18S
ALMA           CLOUDY    69  53  56 CALM      30.17S
ANN ARBOR      CLOUDY    67  52  58 CALM      30.18S
BAD AXE        CLOUDY    62  52  69 CALM      30.17F
CARO           CLOUDY    65  54  67 CALM      30.17S
DETROIT CITY   CLOUDY    65  52  62 CALM      30.18S
DETROIT        CLOUDY    68  52  56 N5        30.18S
FLINT          CLOUDY    66  53  63 SW5       30.19S
GROSSE ILE     CLOUDY    68  54  60 NE5       30.16F
HILLSDALE      CLOUDY    67  55  64 CALM      30.19S
HOWELL         CLOUDY    65  52  62 CALM      30.19S

CITY           SKY/WX    TMP DP  RH WIND       PRES   REMARKS
JACKSON        CLOUDY    64  54  69 W5        30.19S
LAMBERTVILLE   CLOUDY    71  55  57 N6        30.17S
LANSING        CLOUDY    66  52  60 CALM      30.19S
LAPEER         CLOUDY    64  53  68 CALM      30.18S
MASON          CLOUDY    62  52  68 CALM      30.19S
MONROE         CLOUDY    68  53  58 NW3       30.16F
MT. CLEMENS    CLOUDY    65  54  67 NE5       30.15F
PONTIAC        CLOUDY    64  52  64 NW5       30.18S
PORT HOPE        N/A     64  53  67 N3        30.16F
PORT HURON     CLOUDY    64  54  68 N3        30.17S
TRI CITIES     CLOUDY    69  53  56 S6        30.18S
MIDLAND        CLOUDY    69  53  57 CALM      30.16S
TROY           CLOUDY    65  54  66 CALM      30.19S
SAGINAW HB     CLOUDY    66  55  68 S5        30.17S
$$
MIZ043>046-050>051-056>058-064>065-071>073-077>080-272100-
SOUTHWEST LOWER MICHIGAN

CITY           SKY/WX    TMP DP  RH WIND       PRES   REMARKS
BATTLE CREEK   CLOUDY    69  54  58 CALM      30.19S
BENTON HARBOR  CLOUDY    69  57  65 VRB6      30.18S
BIG RAPIDS     PTSUNNY   71  53  53 W3        30.15F
COLDWATER      CLOUDY    68  55  63 W6        30.18S
FREMONT        CLOUDY    69  57  65 SW10      30.16F
HOLLAND        CLOUDY    69  57  65 W7        30.18F
GRAND RAPIDS   CLOUDY    69  54  58 S3        30.17F
IONIA          CLOUDY    68  54  61 CALM      30.17S
KALAMAZOO      CLOUDY    69  53  56 CALM      30.18F
LUDINGTON      MOSUNNY   71  61  70 SW15      30.17S
MARSHALL       CLOUDY   N/A N/A N/A CALM      30.19S
MOUNT PLEASANT CLOUDY    73  54  51 NW3       30.16S
MUSKEGON       MOSUNNY   71  56  58 W8        30.17F
SOUTH HAVEN    SUNNY     70  55  60 NW8       30.18S
$$
MIZ016>042-272100-
NORTHERN LOWER MICHIGAN

CITY           SKY/WX    TMP DP  RH WIND       PRES   REMARKS
ALPENA         CLOUDY    65  52  62 CALM      30.16F
BEAVER ISLAND  MOSUNNY   68  56  65 SW9       30.14
BELLAIRE       PTSUNNY   72  53  51 CALM      30.13F
CADILLAC       PTSUNNY   71  55  57 S7        30.14F
CHARLEVOIX     SUNNY     69  58  67 W15       30.17S
FRANKFORT      SUNNY     68  59  72 SW7G16    30.15F
GAYLORD        CLOUDY    68  53  58 SW7       30.14F
GRAYLING       PTSUNNY   70  55  59 CALM      30.16S
HARBOR SPRINGS SUNNY     68  56  65 W6        30.14S
HOUGHTON LAKE  CLOUDY    69  53  56 W6        30.16F
MANISTEE       SUNNY     68  54  60 W15       30.16F
OSCODA         CLOUDY    63  52  67 E7        30.16F
PELLSTON       CLOUDY    71  54  54 CALM      30.13F
ROGERS CITY    SUNNY     62  51  68 NE6       30.16F
TRAVERSE CITY  MOSUNNY   73  56  54 W8        30.12F
$$
MIZ007>008-015-272100-
EASTERN UPPER MICHIGAN

CITY           SKY/WX    TMP DP  RH WIND       PRES   REMARKS
KINROSS        MOSUNNY   66  54  63 CALM      30.12F
MACKINAC ISLAN SUNNY     64  49  59 CALM      30.13F
NEWBERRY       MOSUNNY   69  55  59 S8        30.11S
S. S. MARIE    SUNNY     66  52  60 W5        30.11F
MUNISING         N/A     68  58  70 NE12      30.08F
$$
MIZ004>006-011>014-085-272100-
CENTRAL UPPER MICHIGAN

CITY           SKY/WX    TMP DP  RH WIND       PRES   REMARKS
MANISTIQUE     MOSUNNY   65  56  72 S7        30.12F
ESCANABA       SUNNY     64  57  77 SE10      30.10F
MENOMINEE      SUNNY     72  55  56 SE12      30.09F
SAWYER-GWINN   SUNNY     72  48  43 S10       30.09F
$$
MIZ001>003-009>011-084-272100-
WESTERN UPPER MICHIGAN

CITY           SKY/WX    TMP DP  RH WIND       PRES   REMARKS
IRON MOUNTAIN  MOSUNNY   73  54  51 S7        30.08F
HOUGHTON       SUNNY     70  49  47 S5        30.06F
COPPER HARBOR    N/A     66  51  58 SW8       30.06F
IRONWOOD       SUNNY     73  52  46 W8        30.03F
$$

ABBREVIATIONS USED IN REMARKS
   TC - TEMPERATURE IN CELSIUS
  WCI - WIND CHILL INDEX
   HX - HEAT INDEX
  VSB - VISIBILITY



USA.gov is the U.S. government's official web portal to all federal, state and local government web resources and services.